Volver al catálogo

RASSVET-3 18

ActivoPO
NORAD 100084·PAYLOAD·🇷🇺 Russia

Lanzado Jul 19, 2026 desde Plesetsk Cosmodrome

Loading…

Próximos Pases (próximas 24 horas)

TLE

ActualizadoSource: Space-Track

Época: Sep 14, 2026, 13:45 UTC

1 A0084U 26165B   26257.57353512 -.00080068  00000-0 -10954-2 0  9990
2 A0084  82.3001 168.0014 0009074 138.2930 221.9018 15.57637079  8937

Sigue RASSVET-3 18 en tiempo real con AllMySat

Download on the App Store